Regional Weather Roundup
Issued by NWS

Home | Current Version | Previous Version | Graphics & Text | Print | Product List | Glossary On
Versions: 1 2 3 4 5 6 7 8 9 10 11 12 13 14 15 16 17 18 19 20 21 22 23 24 25 26 27 28 29 30 31 32 33 34 35 36 37 38 39 40 41 42 43 44 45 46 47 48 49 50
000
ASUS43 KLMK 300510
RWRKY
KENTUCKY REGIONAL WEATHER ROUNDUP
NATIONAL WEATHER SERVICE LOUISVILLE KY
100 AM EDT SAT JUL 30 2016

NOTE "FAIR" INDICATES FEW OR NO CLOUDS BELOW 12,000 FEET
WITH NO SIGNIFICANT WEATHER AND/OR OBSTRUCTIONS TO VISIBILITY.

KYZ001>023-026-027-061>063-070>075-300600-
WESTERN AND SOUTH CENTRAL KENTUCKY

CITY           SKY/WX    TMP DP  RH WIND       PRES   REMARKS
PADUCAH        CLEAR     72  70  93 SW5       29.93F
HENDERSON      CLOUDY    72  68  88 CALM      29.91S
OWENSBORO      LGT RAIN  73  73 100 CALM      29.93S
HOPKINSVILLE   PTCLDY    74  72  94 W5        29.94R
BOWLING GREEN  CLOUDY    75  71  87 S6        29.93F
GLASGOW        CLOUDY    72  72 100 CALM      29.94F
$$

KYZ024-025-028>034-038-045-046-053-300600-
NORTH CENTRAL KENTUCKY

CITY           SKY/WX    TMP DP  RH WIND       PRES   REMARKS
LOUISVILLE/SDF PTCLDY    76  71  85 SW5       29.92F
LOUISVILLE/LOU PTCLDY    76  72  87 CALM      29.93S
FORT KNOX      PTCLDY    70  69  97 S2        29.92F
$$

KYZ035>037-039>044-047>052-055>060-089>105-300600-
NORTHEAST KENTUCKY

CITY           SKY/WX    TMP DP  RH WIND       PRES   REMARKS
LEXINGTON      CLOUDY    73  69  87 SW3       29.96R
COVINGTON      CLOUDY    70  70 100 S7        29.94S
FRANKFORT      CLOUDY    73  69  87 SW7       29.93F
$$

KYZ054-064>069-076>088-106>120-300600-
SOUTHEAST KENTUCKY

CITY           SKY/WX    TMP DP  RH WIND       PRES   REMARKS
JACKSON        CLEAR     70  68  93 CALM      30.00S
LONDON         CLOUDY    71  67  87 S5        29.99S
SOMERSET       CLOUDY    70  70 100 CALM      29.98F
MIDDLESBORO    PTCLDY    68  68  99 CALM      30.02S
MONTICELLO     PTCLDY   N/A N/A N/A NE12      29.99F HAZE
$$





USA.gov is the U.S. government's official web portal to all federal, state and local government web resources and services.